Time,TemperatureF,DewpointF,PressureIn,WindDirection,WindDirectionDegrees,WindSpeedMPH,WindSpeedGustMPH,Humidity,HourlyPrecipIn,Conditions,Clouds,dailyrainin,SoftwareType,DateUTC
2013-03-05 00:09:00,27.5,24.0,29.95,NE,47,4.0,5.0,86,0.00,,,0.00,weatherlink.com 1.10,2013-03-05 06:09:00,
2013-03-05 00:24:00,27.6,24.0,29.95,NE,40,0.0,6.0,86,0.00,,,0.00,weatherlink.com 1.10,2013-03-05 06:24:00,
2013-03-05 00:39:00,27.6,24.0,29.95,NE,46,1.0,8.0,87,0.00,,,0.00,weatherlink.com 1.10,2013-03-05 06:39:00,
2013-03-05 00:54:00,27.5,24.0,29.95,NNE,13,4.0,6.0,88,0.00,,,0.00,weatherlink.com 1.10,2013-03-05 06:54:00,
2013-03-05 01:09:00,27.5,24.0,29.94,NNE,30,0.0,5.0,88,0.00,,,0.00,weatherlink.com 1.10,2013-03-05 07:09:00,
2013-03-05 01:39:00,27.5,24.0,29.94,NE,35,3.0,5.0,88,0.00,,,0.00,weatherlink.com 1.10,2013-03-05 07:39:00,
2013-03-05 01:54:00,27.7,24.0,29.93,NE,38,3.0,6.0,87,0.00,,,0.00,weatherlink.com 1.10,2013-03-05 07:54:00,
2013-03-05 02:09:00,27.9,25.0,29.92,NE,44,3.0,6.0,87,0.00,,,0.00,weatherlink.com 1.10,2013-03-05 08:09:00,
2013-03-05 02:24:00,28.0,25.0,29.91,North,355,2.0,5.0,87,0.00,,,0.00,weatherlink.com 1.10,2013-03-05 08:24:00,
2013-03-05 02:39:00,28.1,25.0,29.91,NNE,29,2.0,4.0,87,0.00,,,0.00,weatherlink.com 1.10,2013-03-05 08:39:00,
2013-03-05 02:54:00,28.3,25.0,29.90,NNE,28,4.0,7.0,88,0.00,,,0.00,weatherlink.com 1.10,2013-03-05 08:54:00,
2013-03-05 03:09:00,28.2,25.0,29.90,NE,46,2.0,5.0,89,0.00,,,0.00,weatherlink.com 1.10,2013-03-05 09:09:00,
2013-03-05 03:24:00,28.0,26.0,29.89,ENE,58,3.0,4.0,90,0.00,,,0.00,weatherlink.com 1.10,2013-03-05 09:24:00,
2013-03-05 03:39:00,27.9,26.0,29.89,NE,52,0.0,6.0,91,0.00,,,0.00,weatherlink.com 1.10,2013-03-05 09:39:00,
2013-03-05 03:54:00,27.8,26.0,29.88,ENE,69,1.0,8.0,92,0.00,,,0.00,weatherlink.com 1.10,2013-03-05 09:54:00,
2013-03-05 04:09:00,27.8,26.0,29.88,NE,43,2.0,8.0,93,0.00,,,0.00,weatherlink.com 1.10,2013-03-05 10:09:00,
2013-03-05 04:24:00,27.8,26.0,29.88,NE,43,2.0,4.0,93,0.00,,,0.00,weatherlink.com 1.10,2013-03-05 10:24:00,
2013-03-05 04:39:00,27.8,26.0,29.88,NE,42,3.0,5.0,94,0.00,,,0.00,weatherlink.com 1.10,2013-03-05 10:39:00,
2013-03-05 04:54:00,27.7,26.0,29.88,ENE,58,2.0,5.0,94,0.00,,,0.00,weatherlink.com 1.10,2013-03-05 10:54:00,
2013-03-05 05:09:00,27.7,26.0,29.88,ENE,67,4.0,5.0,94,0.00,,,0.00,weatherlink.com 1.10,2013-03-05 11:09:00,
2013-03-05 05:24:00,27.6,26.0,29.88,NE,43,2.0,6.0,94,0.00,,,0.00,weatherlink.com 1.10,2013-03-05 11:24:00,
2013-03-05 05:39:00,27.6,26.0,29.88,NE,45,2.0,5.0,95,0.00,,,0.00,weatherlink.com 1.10,2013-03-05 11:39:00,
2013-03-05 05:54:00,27.5,26.0,29.87,NE,54,1.0,5.0,95,0.00,,,0.00,weatherlink.com 1.10,2013-03-05 11:54:00,
2013-03-05 06:09:00,27.5,26.0,29.87,NE,56,2.0,6.0,95,0.00,,,0.00,weatherlink.com 1.10,2013-03-05 12:09:00,
2013-03-05 06:24:00,27.4,26.0,29.87,NE,37,3.0,3.0,95,0.00,,,0.00,weatherlink.com 1.10,2013-03-05 12:24:00,
2013-03-05 06:39:00,27.4,26.0,29.88,NNE,28,2.0,4.0,95,0.00,,,0.00,weatherlink.com 1.10,2013-03-05 12:39:00,
2013-03-05 06:54:00,27.3,26.0,29.87,NNE,13,1.0,3.0,95,0.00,,,0.00,weatherlink.com 1.10,2013-03-05 12:54:00,
2013-03-05 07:09:00,27.5,26.0,29.88,NNE,24,0.0,3.0,95,0.00,,,0.00,weatherlink.com 1.10,2013-03-05 13:09:00,
2013-03-05 07:24:00,27.7,27.0,29.88,North,360,1.0,2.0,95,0.00,,,0.00,weatherlink.com 1.10,2013-03-05 13:24:00,
2013-03-05 07:39:00,27.8,27.0,29.88,North,5,0.0,2.0,95,0.00,,,0.00,weatherlink.com 1.10,2013-03-05 13:39:00,
2013-03-05 07:54:00,27.9,27.0,29.88,NNE,26,1.0,4.0,95,0.00,,,0.00,weatherlink.com 1.10,2013-03-05 13:54:00,
2013-03-05 08:09:00,28.2,27.0,29.88,NE,47,1.0,2.0,96,0.00,,,0.00,weatherlink.com 1.10,2013-03-05 14:09:00,
2013-03-05 08:24:00,28.6,28.0,29.87,NNE,16,1.0,3.0,96,0.00,,,0.00,weatherlink.com 1.10,2013-03-05 14:24:00,
2013-03-05 08:39:00,28.7,28.0,29.87,NE,39,0.0,4.0,95,0.00,,,0.00,weatherlink.com 1.10,2013-03-05 14:39:00,
2013-03-05 08:54:00,28.9,28.0,29.86,NNE,19,2.0,5.0,95,0.00,,,0.00,weatherlink.com 1.10,2013-03-05 14:54:00,
2013-03-05 09:09:00,29.1,28.0,29.86,North,11,1.0,5.0,95,0.00,,,0.00,weatherlink.com 1.10,2013-03-05 15:09:00,
2013-03-05 09:24:00,29.1,28.0,29.85,NNE,26,3.0,5.0,95,0.00,,,0.00,weatherlink.com 1.10,2013-03-05 15:24:00,
2013-03-05 09:39:00,29.2,28.0,29.85,NNE,30,2.0,5.0,95,0.00,,,0.00,weatherlink.com 1.10,2013-03-05 15:39:00,
2013-03-05 09:54:00,29.5,28.0,29.85,NNE,32,1.0,5.0,95,0.00,,,0.00,weatherlink.com 1.10,2013-03-05 15:54:00,
2013-03-05 10:09:00,29.6,28.0,29.84,NNE,30,1.0,4.0,95,0.00,,,0.00,weatherlink.com 1.10,2013-03-05 16:09:00,
2013-03-05 10:25:00,29.9,29.0,29.84,NE,44,2.0,6.0,95,0.00,,,0.00,weatherlink.com 1.10,2013-03-05 16:25:00,
2013-03-05 10:40:00,30.1,29.0,29.83,North,360,2.0,7.0,95,0.00,,,0.00,weatherlink.com 1.10,2013-03-05 16:40:00,
2013-03-05 10:55:00,30.3,29.0,29.83,North,9,3.0,6.0,94,0.00,,,0.00,weatherlink.com 1.10,2013-03-05 16:55:00,
2013-03-05 11:10:00,30.6,29.0,29.83,North,355,4.0,5.0,94,0.00,,,0.00,weatherlink.com 1.10,2013-03-05 17:10:00,
2013-03-05 11:25:00,30.8,29.0,29.83,NE,49,2.0,8.0,94,0.00,,,0.00,weatherlink.com 1.10,2013-03-05 17:25:00,
2013-03-05 11:40:00,30.9,29.0,29.82,NNE,33,3.0,5.0,94,0.00,,,0.00,weatherlink.com 1.10,2013-03-05 17:40:00,
2013-03-05 11:55:00,31.0,30.0,29.82,North,360,4.0,6.0,94,0.00,,,0.00,weatherlink.com 1.10,2013-03-05 17:55:00,
2013-03-05 12:10:00,31.2,30.0,29.82,North,360,4.0,6.0,94,0.00,,,0.00,weatherlink.com 1.10,2013-03-05 18:10:00,
2013-03-05 12:25:00,31.7,30.0,29.82,NNE,18,1.0,4.0,94,0.01,,,0.01,weatherlink.com 1.10,2013-03-05 18:25:00,
2013-03-05 12:40:00,31.5,30.0,29.82,North,360,1.0,5.0,93,0.03,,,0.03,weatherlink.com 1.10,2013-03-05 18:40:00,
2013-03-05 12:55:00,31.6,30.0,29.81,North,11,0.0,6.0,94,0.04,,,0.04,weatherlink.com 1.10,2013-03-05 18:55:00,
2013-03-05 13:10:00,31.5,30.0,29.81,North,360,0.0,5.0,94,0.06,,,0.06,weatherlink.com 1.10,2013-03-05 19:10:00,
2013-03-05 13:25:00,31.3,30.0,29.81,North,5,4.0,8.0,93,0.07,,,0.08,weatherlink.com 1.10,2013-03-05 19:25:00,
2013-03-05 13:40:00,31.2,30.0,29.81,North,10,2.0,5.0,94,0.06,,,0.09,weatherlink.com 1.10,2013-03-05 19:40:00,
2013-03-05 13:55:00,31.0,29.0,29.81,North,350,4.0,10.0,93,0.05,,,0.10,weatherlink.com 1.10,2013-03-05 19:55:00,
2013-03-05 14:10:00,30.7,29.0,29.82,NNE,27,3.0,8.0,93,0.05,,,0.11,weatherlink.com 1.10,2013-03-05 20:10:00,
2013-03-05 14:25:00,30.6,29.0,29.83,North,355,2.0,8.0,93,0.04,,,0.12,weatherlink.com 1.10,2013-03-05 20:25:00,
2013-03-05 14:40:00,30.2,29.0,29.83,North,10,0.0,9.0,93,0.04,,,0.13,weatherlink.com 1.10,2013-03-05 20:40:00,
2013-03-05 14:55:00,30.0,28.0,29.84,NNE,25,3.0,9.0,93,0.04,,,0.14,weatherlink.com 1.10,2013-03-05 20:55:00,
2013-03-05 15:10:00,29.7,28.0,29.84,NNE,17,2.0,7.0,94,0.04,,,0.15,weatherlink.com 1.10,2013-03-05 21:10:00,
2013-03-05 15:25:00,29.4,28.0,29.85,North,355,2.0,6.0,94,0.03,,,0.15,weatherlink.com 1.10,2013-03-05 21:25:00,
2013-03-05 15:40:00,29.2,28.0,29.85,North,10,2.0,8.0,94,0.03,,,0.16,weatherlink.com 1.10,2013-03-05 21:40:00,
2013-03-05 15:55:00,29.2,28.0,29.86,North,9,2.0,6.0,95,0.02,,,0.16,weatherlink.com 1.10,2013-03-05 21:55:00,
2013-03-05 16:10:00,29.0,28.0,29.87,North,349,3.0,7.0,95,0.02,,,0.17,weatherlink.com 1.10,2013-03-05 22:10:00,
2013-03-05 16:25:00,28.7,28.0,29.88,NNW,331,2.0,9.0,95,0.02,,,0.17,weatherlink.com 1.10,2013-03-05 22:25:00,
2013-03-05 16:40:00,28.4,27.0,29.88,NNW,341,3.0,9.0,95,0.02,,,0.18,weatherlink.com 1.10,2013-03-05 22:40:00,
2013-03-05 16:55:00,28.1,27.0,29.89,North,5,3.0,6.0,94,0.02,,,0.18,weatherlink.com 1.10,2013-03-05 22:55:00,
2013-03-05 17:10:00,27.9,26.0,29.90,NNE,28,5.0,8.0,94,0.01,,,0.18,weatherlink.com 1.10,2013-03-05 23:10:00,
2013-03-05 17:25:00,27.5,26.0,29.91,NNW,338,2.0,12.0,94,0.01,,,0.18,weatherlink.com 1.10,2013-03-05 23:25:00,
2013-03-05 17:40:00,27.3,26.0,29.92,NNE,26,2.0,8.0,94,0.00,,,0.18,weatherlink.com 1.10,2013-03-05 23:40:00,
2013-03-05 17:55:00,27.0,26.0,29.93,North,5,2.0,7.0,94,0.00,,,0.18,weatherlink.com 1.10,2013-03-05 23:55:00,
2013-03-05 18:10:00,26.7,26.0,29.94,NNE,18,3.0,9.0,95,0.00,,,0.18,weatherlink.com 1.10,2013-03-06 00:10:00,
2013-03-05 18:25:00,26.6,25.0,29.95,North,5,3.0,11.0,95,0.00,,,0.18,weatherlink.com 1.10,2013-03-06 00:25:00,
2013-03-05 18:40:00,26.6,25.0,29.96,North,355,2.0,6.0,95,0.00,,,0.18,weatherlink.com 1.10,2013-03-06 00:40:00,
2013-03-05 18:55:00,26.5,25.0,29.97,North,360,1.0,4.0,95,0.00,,,0.18,weatherlink.com 1.10,2013-03-06 00:55:00,
2013-03-05 19:10:00,26.5,25.0,29.97,North,355,1.0,8.0,95,0.00,,,0.18,weatherlink.com 1.10,2013-03-06 01:10:00,
2013-03-05 19:25:00,26.3,25.0,29.98,North,5,5.0,10.0,95,0.00,,,0.18,weatherlink.com 1.10,2013-03-06 01:25:00,
2013-03-05 19:40:00,26.1,25.0,29.99,North,350,1.0,8.0,94,0.00,,,0.18,weatherlink.com 1.10,2013-03-06 01:40:00,
2013-03-05 19:55:00,26.0,25.0,29.99,NNW,339,3.0,8.0,94,0.00,,,0.18,weatherlink.com 1.10,2013-03-06 01:55:00,
2013-03-05 20:10:00,25.9,24.0,30.00,North,355,2.0,5.0,94,0.00,,,0.18,weatherlink.com 1.10,2013-03-06 02:10:00,
2013-03-05 20:25:00,25.9,24.0,30.00,NNW,342,2.0,7.0,94,0.00,,,0.18,weatherlink.com 1.10,2013-03-06 02:25:00,
2013-03-05 20:40:00,25.8,24.0,30.01,North,11,2.0,4.0,94,0.00,,,0.18,weatherlink.com 1.10,2013-03-06 02:40:00,
2013-03-05 20:55:00,25.9,24.0,30.02,North,355,2.0,8.0,94,0.00,,,0.18,weatherlink.com 1.10,2013-03-06 02:55:00,
2013-03-05 21:10:00,25.9,24.0,30.03,NW,317,0.0,6.0,94,0.00,,,0.18,weatherlink.com 1.10,2013-03-06 03:10:00,
2013-03-05 21:26:00,25.9,24.0,30.03,NNW,344,1.0,8.0,94,0.00,,,0.18,weatherlink.com 1.10,2013-03-06 03:26:00,
2013-03-05 21:41:00,26.0,24.0,30.04,NW,324,1.0,7.0,93,0.00,,,0.18,weatherlink.com 1.10,2013-03-06 03:41:00,
2013-03-05 21:56:00,26.1,24.0,30.04,NNE,27,2.0,8.0,93,0.00,,,0.18,weatherlink.com 1.10,2013-03-06 03:56:00,
2013-03-05 22:11:00,26.1,24.0,30.05,NNW,345,2.0,6.0,93,0.00,,,0.18,weatherlink.com 1.10,2013-03-06 04:11:00,
2013-03-05 22:26:00,26.2,24.0,30.05,North,5,3.0,9.0,92,0.00,,,0.18,weatherlink.com 1.10,2013-03-06 04:26:00,
2013-03-05 22:41:00,26.0,24.0,30.05,North,5,3.0,6.0,91,0.00,,,0.18,weatherlink.com 1.10,2013-03-06 04:41:00,
2013-03-05 22:56:00,25.7,24.0,30.06,North,355,1.0,4.0,91,0.00,,,0.18,weatherlink.com 1.10,2013-03-06 04:56:00,
2013-03-05 23:11:00,25.5,23.0,30.06,North,349,2.0,7.0,91,0.00,,,0.18,weatherlink.com 1.10,2013-03-06 05:11:00,
2013-03-05 23:26:00,25.2,23.0,30.07,North,355,1.0,4.0,91,0.00,,,0.18,weatherlink.com 1.10,2013-03-06 05:26:00,
2013-03-05 23:41:00,24.9,22.0,30.07,NNW,336,1.0,6.0,90,0.00,,,0.18,weatherlink.com 1.10,2013-03-06 05:41:00,
2013-03-05 23:56:00,24.3,22.0,30.08,NW,314,1.0,3.0,91,0.00,,,0.18,weatherlink.com 1.10,2013-03-06 05:56:00,